Location: Chomutov
(50.4500°N, 13.4333°E)
Time: 01:54:04
(UTC+02:00)

FO-29 - Pass Details

Date: 27 September 2021
Orbit: 800 x 1321 km, 98.6° (Epoch: 27 October)

Event Time Altitude Azimuth Distance (km) Brightness Sun altitude
Exits shadow 21:04:41 31° 139° (SE) 2,126 10.7 -21.3°
Maximum altitude 21:08:45 65° 68° (ENE) 1,433 10.1 -21.8°
Drops below altitude 10° 21:16:32 10° 349° (N) 3,352 12.8 -23.0°
Sets 21:19:15 0° 347° (NNW) 4,304 13.4 -23.3°
